CW0350 Weather Reports


time (UTC)temp
C
wind
direction
speed
KPH
gust
KPH
rain 1hr
cm
rain 24hr
cm
rain mn
cm
humidity
%
barometer
mb
20260504035532 11 229 3.2 3.2 0.00 0.00 0.00 71 1017.8
20260504035028 8 302 0.0 0.0 0.00 0.00 0.00 73 1018.0
20260504034526 8 194 1.6 1.6 0.00 0.00 0.00 73 1017.8
20260504034023 8 315 0.0 0.0 0.00 0.00 0.00 75 1017.7
20260504033521 8 315 0.0 0.0 0.00 0.00 0.00 75 1017.5
20260504033018 8 315 0.0 0.0 0.00 0.00 0.00 75 1017.5
20260504032515 8 315 0.0 0.0 0.00 0.00 0.00 76 1017.6
20260504032012 8 315 0.0 0.0 0.00 0.00 0.00 78 1017.8
20260504031509 8 315 0.0 0.0 0.00 0.00 0.00 78 1017.5
20260504031005 8 315 0.0 0.0 0.00 0.00 0.00 78 1017.6
20260504030502 8 315 0.0 0.0 0.00 0.00 0.00 77 1017.5
20260504025958 8 315 0.0 0.0 0.00 0.00 0.00 80 1017.5
20260504025455 8 315 0.0 0.0 0.00 0.00 0.00 80 1017.6
20260504024952 8 315 0.0 0.0 0.00 0.00 0.00 78 1017.7
20260504024449 8 315 0.0 0.0 0.00 0.00 0.00 75 1017.6
20260504023946 8 315 0.0 0.0 0.00 0.00 0.00 74 1017.5
20260504023443 8 315 0.0 0.0 0.00 0.00 0.00 77 1017.6
20260504022938 9 315 0.0 0.0 0.00 0.00 0.00 80 1017.5
20260504022434 9 315 0.0 0.0 0.00 0.00 0.00 80 1017.7
20260504021931 9 315 0.0 0.0 0.00 0.00 0.00 79 1017.6
20260504021428 10 315 0.0 0.0 0.00 0.00 0.00 78 1017.6
20260504020926 10 315 0.0 0.0 0.00 0.00 0.00 77 1017.8
20260504020422 10 315 0.0 0.0 0.00 0.00 0.00 76 1017.6
20260504015919 10 315 0.0 0.0 0.00 0.00 0.00 75 1017.6
20260504015415 10 315 0.0 0.0 0.00 0.00 0.00 73 1017.6
20260504014911 10 315 0.0 0.0 0.00 0.00 0.00 71 1017.4
20260504014407 10 315 0.0 0.0 0.00 0.00 0.00 68 1017.5
20260504013904 10 315 0.0 0.0 0.00 0.00 0.00 68 1017.4
20260504013403 10 315 0.0 0.0 0.00 0.00 0.00 67 1017.4
20260504012859 10 315 0.0 0.0 0.00 0.00 0.00 66 1017.6
20260504012357 10 315 0.0 0.0 0.00 0.00 0.00 64 1017.4
20260504011854 10 315 0.0 1.6 0.00 0.00 0.00 63 1017.1
20260504011350 10 315 0.0 1.6 0.00 0.00 0.00 61 1017.3
20260504010846 10 315 1.6 1.6 0.00 0.00 0.00 60 1017.1
20260504010342 10 315 1.6 1.6 0.00 0.00 0.00 57 1017.1
20260504005839 10 315 0.0 0.0 0.00 0.00 0.00 58 1017.0
20260504005336 11 315 0.0 0.0 0.00 0.00 0.00 59 1017.1
20260504004833 11 315 0.0 0.0 0.00 0.00 0.00 58 1016.9
20260504004331 11 315 0.0 0.0 0.00 0.00 0.00 56 1016.9
20260504003827 11 315 0.0 1.6 0.00 0.00 0.00 55 1016.9
20260504003324 11 315 1.6 1.6 0.00 0.00 0.00 54 1016.9
20260504002821 12 315 0.0 0.0 0.00 0.00 0.00 50 1016.6
20260504002317 12 315 0.0 0.0 0.00 0.00 0.00 48 1016.7
20260504001815 12 315 0.0 0.0 0.00 0.00 0.00 48 1016.5
20260504001312 12 315 0.0 1.6 0.00 0.00 0.00 46 1016.6
20260504000809 12 315 0.0 0.0 0.00 0.00 0.00 48 1016.4
20260504000306 12 315 0.0 0.0 0.00 0.00 0.00 48 1016.5
20260503235804 12 315 0.0 0.0 0.00 0.00 0.00 47 1016.4
20260503235301 13 315 0.0 0.0 0.00 0.00 0.00 50 1016.3
20260503234759 13 315 0.0 0.0 0.00 0.00 0.00 48 1016.3
20260503234256 13 303 0.0 0.0 0.00 0.00 0.00 47 1016.5
20260503233754 13 303 0.0 0.0 0.00 0.00 0.00 47 1016.3
20260503233249 13 303 0.0 0.0 0.00 0.00 0.00 45 1016.2
20260503232746 14 302 0.0 0.0 0.00 0.00 0.00 44 1016.3
20260503232243 14 302 0.0 0.0 0.00 0.00 0.00 42 1016.2
20260503231741 15 301 0.0 0.0 0.00 0.00 0.00 41 1016.2
20260503231238 15 297 0.0 0.0 0.00 0.00 0.00 39 1016.0
20260503230734 15 332 0.0 0.0 0.00 0.00 0.00 40 1016.1
20260503230232 15 308 0.0 0.0 0.00 0.00 0.00 40 1016.2
20260503225729 15 343 0.0 0.0 0.00 0.00 0.00 38 1016.3
20260503225229 15 316 0.0 1.6 0.00 0.00 0.00 38 1016.2
20260503224726 15 298 0.0 0.0 0.00 0.00 0.00 37 1016.2
20260503224224 15 307 0.0 0.0 0.00 0.00 0.00 36 1016.2
20260503223721 16 351 0.0 1.6 0.00 0.00 0.00 35 1016.4
20260503223219 16 346 0.0 0.0 0.00 0.00 0.00 37 1016.1
20260503222715 16 3 0.0 1.6 0.00 0.00 0.00 39 1016.1
20260503222213 16 315 0.0 0.0 0.00 0.00 0.00 36 1016.2
20260503221711 16 358 0.0 1.6 0.00 0.00 0.00 36 1016.3
20260503221209 16 56 1.6 1.6 0.00 0.00 0.00 36 1016.2
20260503220705 16 63 1.6 1.6 0.00 0.00 0.00 35 1016.2
20260503220201 16 338 0.0 1.6 0.00 0.00 0.00 36 1016.2
20260503215658 16 351 1.6 3.2 0.00 0.00 0.00 34 1016.1
20260503215155 16 22 1.6 1.6 0.00 0.00 0.00 36 1015.9
20260503214649 16 340 1.6 1.6 0.00 0.00 0.00 37 1016.0
20260503214144 16 295 0.0 1.6 0.00 0.00 0.00 33 1016.1
20260503213643 16 319 0.0 0.0 0.00 0.00 0.00 36 1016.0
20260503213139 16 339 3.2 3.2 0.00 0.00 0.00 34 1016.0
20260503212637 16 53 1.6 1.6 0.00 0.00 0.00 37 1016.1
20260503212134 17 351 1.6 3.2 0.00 0.00 0.00 33 1016.2
20260503211632 17 347 3.2 3.2 0.00 0.00 0.00 34 1016.3
20260503211127 17 340 0.0 1.6 0.00 0.00 0.00 34 1015.9
20260503210624 17 336 0.0 1.6 0.00 0.00 0.00 35 1015.9
20260503210120 16 291 1.6 1.6 0.00 0.00 0.00 34 1015.9
20260503205616 17 11 1.6 3.2 0.00 0.00 0.00 34 1016.0
20260503205113 17 300 1.6 3.2 0.00 0.00 0.00 34 1016.0
20260503204609 16 348 3.2 3.2 0.00 0.00 0.00 34 1016.0
20260503204107 17 316 6.4 6.4 0.00 0.00 0.00 32 1016.0
20260503203604 17 342 0.0 0.0 0.00 0.00 0.00 38 1015.9
20260503203101 17 288 1.6 1.6 0.00 0.00 0.00 34 1015.8
20260503202559 17 323 3.2 6.4 0.00 0.00 0.00 35 1015.8
20260503202056 17 226 3.2 4.8 0.00 0.00 0.00 32 1016.0
20260503201554 17 320 1.6 3.2 0.00 0.00 0.00 33 1016.2
20260503201051 17 340 6.4 6.4 0.00 0.00 0.00 33 1016.2
20260503200547 16 319 1.6 1.6 0.00 0.00 0.00 36 1016.3
20260503200044 17 20 4.8 4.8 0.00 0.00 0.00 34 1016.2
20260503195541 17 10 1.6 1.6 0.00 0.00 0.00 36 1016.2
20260503195038 17 4 3.2 3.2 0.00 0.00 0.00 33 1016.4
20260503194535 17 317 1.6 3.2 0.00 0.00 0.00 34 1016.4
20260503194035 16 11 3.2 6.4 0.00 0.00 0.00 35 1016.6
20260503193532 16 1 3.2 3.2 0.00 0.00 0.00 34 1016.7
20260503193027 16 321 3.2 3.2 0.00 0.00 0.00 35 1016.4
20260503192523 17 62 4.8 6.4 0.00 0.00 0.00 35 1016.7
20260503192020 17 308 0.0 1.6 0.00 0.00 0.00 35 1016.6
20260503191517 16 319 3.2 4.8 0.00 0.00 0.00 35 1016.7
20260503191013 16 307 0.0 1.6 0.00 0.00 0.00 35 1016.8
20260503190510 16 150 4.8 9.7 0.00 0.00 0.00 33 1016.7
20260503190008 16 15 4.8 6.4 0.00 0.00 0.00 36 1016.9
20260503185504 17 229 3.2 3.2 0.00 0.00 0.00 36 1016.8
20260503185003 16 322 1.6 1.6 0.00 0.00 0.00 36 1017.1
20260503184500 16 49 1.6 1.6 0.00 0.00 0.00 36 1017.0
20260503183956 17 358 3.2 3.2 0.00 0.00 0.00 36 1017.1
20260503183453 16 21 1.6 1.6 0.00 0.00 0.00 34 1017.1
20260503182950 16 328 3.2 3.2 0.00 0.00 0.00 34 1017.1
20260503182449 16 5 4.8 6.4 0.00 0.00 0.00 36 1017.1
20260503181946 16 265 1.6 4.8 0.00 0.00 0.00 38 1017.1
20260503181443 16 355 3.2 3.2 0.00 0.00 0.00 38 1017.3
20260503180939 16 344 3.2 3.2 0.00 0.00 0.00 35 1017.3
20260503180437 16 336 0.0 0.0 0.00 0.00 0.00 37 1017.4
20260503175934 16 358 3.2 3.2 0.00 0.00 0.00 36 1017.4
20260503175432 15 334 1.6 3.2 0.00 0.00 0.00 38 1017.4
20260503174927 15 1 4.8 6.4 0.00 0.00 0.00 38 1017.4
20260503174426 15 10 3.2 6.4 0.00 0.00 0.00 37 1017.6
20260503173926 15 56 3.2 4.8 0.00 0.00 0.00 37 1017.6
20260503173422 16 359 4.8 6.4 0.00 0.00 0.00 40 1017.4
20260503172919 15 358 1.6 1.6 0.00 0.00 0.00 36 1017.6
20260503172417 15 16 3.2 4.8 0.00 0.00 0.00 35 1017.6
20260503171913 15 299 1.6 3.2 0.00 0.00 0.00 39 1017.5
20260503171410 15 320 4.8 4.8 0.00 0.00 0.00 38 1017.7
20260503170907 15 24 3.2 3.2 0.00 0.00 0.00 39 1017.8
20260503170403 15 340 3.2 3.2 0.00 0.00 0.00 38 1017.9
20260503150755 12 351 1.6 3.2 0.00 0.00 0.00 37 1018.2
20260503150251 13 15 1.6 3.2 0.00 0.00 0.00 43 1018.2
20260503140216 12 35 3.2 4.8 0.00 0.00 0.00 44 1017.9
20260503131145 10 13 1.6 1.6 0.00 0.00 0.00 54 1018.0
20260503130643 10 355 1.6 3.2 0.00 0.00 0.00 54 1018.1
20260503130140 10 326 4.8 6.4 0.00 0.00 0.00 53 1018.0
20260503120106 8 349 3.2 4.8 0.00 0.00 0.00 63 1017.3
20260503110533 8 105 3.2 3.2 0.00 0.00 0.00 64 1017.0
20260503090420 9 325 1.6 1.6 0.00 0.00 0.00 65 1014.8
20260503081346 10 332 3.2 3.2 0.00 0.00 0.00 68 1014.2
20260503080843 10 332 0.0 0.0 0.00 0.00 0.00 69 1014.1
20260503080340 10 328 1.6 1.6 0.00 0.00 0.00 68 1014.1
20260503072817 10 315 1.6 1.6 0.00 0.00 0.00 62 1013.8
20260503072314 10 331 1.6 3.2 0.00 0.00 0.00 62 1013.8
20260503071809 10 351 0.0 1.6 0.00 0.00 0.00 63 1013.7
20260503071307 10 325 0.0 0.0 0.00 0.00 0.00 63 1013.7
20260503070803 10 353 1.6 3.2 0.00 0.00 0.00 64 1013.4
20260503070302 10 335 1.6 1.6 0.00 0.00 0.00 64 1013.5
20260503060232 10 332 0.0 0.0 0.00 0.00 0.00 76 1013.1
20260503054719 9 332 1.6 1.6 0.00 0.00 0.00 77 1013.1
20260503054216 9 332 1.6 1.6 0.00 0.00 0.00 78 1013.1
20260503053714 9 332 1.6 1.6 0.00 0.00 0.00 78 1013.2
20260503053213 9 335 0.0 0.0 0.00 0.00 0.00 76 1013.3
20260503052708 9 353 1.6 3.2 0.00 0.00 0.00 75 1013.4
20260503052205 9 331 1.6 1.6 0.00 0.00 0.00 75 1013.5
20260503051700 9 351 1.6 3.2 0.00 0.00 0.00 74 1013.5
20260503051159 9 330 1.6 1.6 0.00 0.00 0.00 74 1013.3
20260503050655 9 330 1.6 1.6 0.00 0.00 0.00 75 1013.3
20260503050151 9 329 1.6 1.6 0.00 0.00 0.00 76 1013.4
20260503045649 8 330 1.6 1.6 0.00 0.00 0.00 76 1013.3
20260503045146 8 329 1.6 1.6 0.00 0.00 0.00 76 1013.3
20260503044642 8 329 0.0 1.6 0.00 0.00 0.00 76 1013.2
20260503044140 8 334 1.6 1.6 0.00 0.00 0.00 75 1013.2
20260503043637 8 328 1.6 1.6 0.00 0.00 0.00 76 1013.3
20260503043134 8 328 0.0 1.6 0.00 0.00 0.00 77 1013.6
20260503042630 8 328 0.0 1.6 0.00 0.00 0.00 76 1013.4
20260503042126 8 328 1.6 1.6 0.00 0.00 0.00 76 1013.3
20260503041623 8 328 1.6 1.6 0.00 0.00 0.00 75 1013.5
20260503041121 8 328 0.0 1.6 0.00 0.00 0.00 75 1013.5
20260503040618 8 328 0.0 0.0 0.00 0.00 0.00 75 1013.4
20260503040115 8 328 0.0 1.6 0.00 0.00 0.00 75 1013.4